AirNav   ProFlight Series 2 Aviation Headset
 
 1048 users online  

86PA 7D Farms Heliport
Tipton, Pennsylvania, USA

GOING TO TIPTON?


FAA INFORMATION EFFECTIVE 18 JUNE 2020

Location

FAA Identifier: 86PA
Lat/Long: 40-38-40.2310N 078-18-02.0520W
40-38.670517N 078-18.034200W
40.6445086,-78.3005700
(estimated)
Elevation: 1080 ft. / 329 m (estimated)
Variation: 10W (1995)
From city: 1 mile N of TIPTON, PA
Time zone: UTC -4 (UTC -5 during Standard Time)
Zip code: 16686

Heliport Operations

Heliport use: Private use. Permission required prior to landing
Activation date: 01/1997
Control tower: no
ARTCC: NEW YORK CENTER
FSS: ALTOONA FLIGHT SERVICE STATION
Attendance: UNATNDD
Wind indicator: yes
Segmented circle: no

Heliport Communications

WX AWOS-3 at PSB (17 nm NE): 127.525 (814-343-4531)

Nearby radio navigation aids

VOR radial/distance  VOR name  Freq  Var
RECr083/21.2REVLOC VOR/DME110.6009W
PSBr231/21.5PHILIPSBURG VORTAC115.5010W
JSTr057/31.3JOHNSTOWN VOR/DME113.0006W
ETGr202/35.0KEATING VORTAC116.0010W

Heliport Services

Runway Information

Helipad H1

Dimensions: 20 x 20 ft. / 6 x 6 m
Surface: turf
Operational restrictions: INGRESS/EGRESS 065-245 DEGS.
Traffic pattern: leftleft

Helipad H2

Dimensions: 20 x 20 ft. / 6 x 6 m
Surface: turf
Operational restrictions: INGRESS/EGRESS165-345 DEGS.
Traffic pattern: leftleft

Heliport Ownership and Management from official FAA records

Ownership: Privately-owned
Owner: BRUNO A. DE GOL, JR.
3229 PLEASANT VALLEY BLVD.
ALTOONA, PA 16602
Phone 814-941-7777
Manager: BRUNO A. DE GOL, JR.
3229 PLEASANT VALLEY BLVD.
ALTOONA, PA 16602
Phone 814-941-7777

Heliport Operational Statistics

Aircraft based on the field: 1
Helicopters: 1
    

Additional Remarks

FOR CD CTC NEW YORK ARTCC AT 631-468-1425.

Instrument Procedures

There are no published instrument procedures at 86PA.

Some nearby airports with instrument procedures:

KPSB - Mid-State Airport (17 nm NE)
KAOO - Altoona-Blair County Airport (21 nm S)
KUNV - University Park Airport (24 nm NE)
9G8 - Ebensburg Airport (24 nm SW)
KFIG - Clearfield-Lawrence Airport (25 nm N)
 
Loc | Ops | Rwys | IFR | FBO | Links
Com | Nav | Svcs | Stats | Notes
Area around 86PA (7D Farms Heliport)
 
Road maps at: MapQuest Bing Google
 
Aerial photo
No photo
 
Sectional chart

 
Airport distance calculator
Flying to 7D Farms Heliport? Find the distance to fly.

From to 86PA

Sunrise and sunset
Times for 02-Jul-2020
 Local
(UTC-4)
 Zulu
(UTC)
Morning civil twilight05:1509:15
Sunrise05:4809:48
Sunset20:4700:47
Evening civil twilight21:2001:20

Current date and time
Zulu (UTC)  02-Jul-2020 22:19:11
Local (UTC-4)  02-Jul-2020 18:19:11
 
METAR
KAOO 
21nm S 
022153Z AUTO 35005KT 10SM CLR 30/14 A2995 RMK AO2 SLP133 T03000139
KUNV 
25nm NE 
022153Z 34007KT 10SM SCT090 31/14 A2992
KFIG 
25nm N 
022154Z AUTO 33009KT 10SM FEW110 31/14 A2996 RMK AO2 SLP133 T03060139
KRVL 
31nm E 
022155Z AUTO 30006KT 10SM CLR 32/15 A2988 RMK AO2
KJST 
31nm SW 
022154Z AUTO 32006KT 10SM CLR 29/11 A3000 RMK AO2 SLP141 T02940111
KHMZ 
35nm S 
022155Z AUTO 02003KT 10SM CLR 30/12 A2993 RMK AO2 T02990117
KIDI 
36nm W 
022155Z AUTO VRB05KT 10SM CLR 31/16 A3000 RMK A01
TAF
KAOO 
21nm S 
021720Z 0218/0318 36007KT P6SM SCT050 FM030200 29004KT P6SM SKC FM030800 26002KT P6SM SCT070 FM031400 31008KT P6SM SKC
KUNV 
25nm NE 
021720Z 0218/0318 34006KT P6SM SCT050 FM030200 00000KT P6SM SKC FM030600 29002KT P6SM SKC FM031500 30007KT P6SM FEW050
NOTAMs
Click for the latest NOTAMs
NOTAMs are issued by the DoD/FAA and will open in a separate window not controlled by AirNav.

 

 
 

Would you like to see your business listed on this page?

 If your business provides an interesting product or service to pilots, flight crews, aircraft, or users of the 7D Farms Heliport, you should consider listing it here.  To start the listing process, click on the button below
 
Add a business
 

Other Pages about 7D Farms Heliport

Update a link
 
Copyright © AirNav, LLC. All rights reserved. Privacy Policy  Contact